• In Netherlands
  • List of Countries
  • For 7 days
  • Water Temperature
  • Satellite Maps
  • Weather Map
  • Weather Widgets
  • user-avatar
    Login

    Hourly Weather Artashat

    Today, 21 August, Monday

    Time Temperature Precipitation Wind Pressure Humidity
    00:00 +20°C° 0 mm 1 mps 605 mmHg 45%
    01:00 +20°C° 0 mm 1 mps 605 mmHg 47%
    02:00 +19°C° 0 mm 1 mps 604 mmHg 50%
    03:00 +18°C° 0 mm 1 mps 604 mmHg 53%
    04:00 +18°C° 0 mm 1 mps 604 mmHg 54%
    05:00 +18°C° 0 mm 1 mps 604 mmHg 55%
    06:00 +18°C° 0 mm 1 mps 604 mmHg 55%
    07:00 +20°C° 0 mm 1 mps 605 mmHg 48%
    08:00 +21°C° 0 mm 1 mps 605 mmHg 41%
    09:00 +23°C° 0 mm 1 mps 606 mmHg 34%
    10:00 +25°C° 0 mm 2 mps 606 mmHg 30%
    11:00 +26°C° 0 mm 2 mps 606 mmHg 26%
    12:00 +28°C° 0 mm 2 mps 607 mmHg 21%
    13:00 +28°C° 0 mm 2 mps 606 mmHg 20%
    14:00 +29°C° 0 mm 2 mps 606 mmHg 18%
    15:00 +30°C° 0 mm 2 mps 606 mmHg 16%
    16:00 +29°C° 0 mm 2 mps 606 mmHg 18%
    17:00 +28°C° 0 mm 2 mps 605 mmHg 19%
    18:00 +27°C° 0 mm 2 mps 605 mmHg 21%
    19:00 +26°C° 0 mm 2 mps 605 mmHg 24%
    20:00 +24°C° 0 mm 1 mps 604 mmHg 28%
    21:00 +22°C° 0 mm 1 mps 604 mmHg 31%
    22:00 +22°C° 0 mm 1 mps 604 mmHg 33%
    23:00 +21°C° 0 mm 1 mps 604 mmHg 35%

    Tomorrow, 22 August, Tuesday

    Time Temperature Precipitation Wind Pressure Humidity
    00:00 +20°C° 0 mm 1 mps 604 mmHg 37%
    01:00 +20°C° 0 mm 1 mps 603 mmHg 38%
    02:00 +19°C° 0 mm 1 mps 603 mmHg 40%
    03:00 +19°C° 0 mm 1 mps 603 mmHg 42%
    04:00 +19°C° 0 mm 1 mps 603 mmHg 43%
    05:00 +18°C° 0 mm 1 mps 603 mmHg 44%
    06:00 +18°C° 0 mm 1 mps 603 mmHg 45%
    07:00 +21°C° 0 mm 1 mps 603 mmHg 40%
    08:00 +23°C° 0 mm 1 mps 604 mmHg 35%
    09:00 +25°C° 0 mm 2 mps 605 mmHg 30%
    10:00 +26°C° 0 mm 2 mps 605 mmHg 27%
    11:00 +28°C° 0 mm 2 mps 605 mmHg 24%
    12:00 +29°C° 0 mm 2 mps 606 mmHg 20%
    13:00 +30°C° 0 mm 3 mps 605 mmHg 18%
    14:00 +30°C° 0 mm 3 mps 605 mmHg 17%
    15:00 +31°C° 0 mm 3 mps 605 mmHg 15%
    16:00 +30°C° 0 mm 3 mps 605 mmHg 17%
    17:00 +30°C° 0 mm 2 mps 604 mmHg 18%
    18:00 +29°C° 0 mm 2 mps 604 mmHg 20%
    19:00 +27°C° 0 mm 2 mps 604 mmHg 24%
    20:00 +25°C° 0 mm 2 mps 603 mmHg 27%
    21:00 +23°C° 0 mm 1 mps 603 mmHg 31%
    22:00 +23°C° 0 mm 1 mps 603 mmHg 33%
    23:00 +22°C° 0 mm 1 mps 603 mmHg 34%

    Day after tomorrow, 23 August, Wednesday

    Time Temperature Precipitation Wind Pressure Humidity
    00:00 +21°C° 0 mm 1 mps 603 mmHg 36%
    01:00 +21°C° 0 mm 1 mps 602 mmHg 38%
    02:00 +20°C° 0 mm 1 mps 602 mmHg 40%
    03:00 +19°C° 0 mm 1 mps 602 mmHg 42%
    04:00 +19°C° 0 mm 1 mps 602 mmHg 42%
    05:00 +19°C° 0 mm 1 mps 602 mmHg 43%
    06:00 +19°C° 0 mm 1 mps 603 mmHg 44%
    07:00 +21°C° 0 mm 1 mps 603 mmHg 39%
    08:00 +23°C° 0 mm 2 mps 604 mmHg 33%
    09:00 +25°C° 0 mm 2 mps 605 mmHg 28%
    10:00 +27°C° 0 mm 2 mps 605 mmHg 25%
    11:00 +28°C° 0 mm 2 mps 605 mmHg 22%
    12:00 +30°C° 0 mm 2 mps 606 mmHg 19%
    13:00 +30°C° 0 mm 2 mps 606 mmHg 18%
    14:00 +31°C° 0 mm 3 mps 606 mmHg 16%
    15:00 +33°C° 0 mm 3 mps 606 mmHg 14%
    16:00 +31°C° 0 mm 3 mps 606 mmHg 16%
    17:00 +30°C° 0 mm 3 mps 606 mmHg 18%
    18:00 +29°C° 0 mm 3 mps 605 mmHg 19%
    19:00 +27°C° 0 mm 3 mps 605 mmHg 23%
    20:00 +26°C° 0 mm 3 mps 605 mmHg 27%
    21:00 +24°C° 0 mm 2 mps 605 mmHg 30%
    22:00 +23°C° 0 mm 2 mps 605 mmHg 33%
    23:00 +21°C° 0 mm 2 mps 605 mmHg 35%

    24 August, Thursday

    Time Temperature Precipitation Wind Pressure Humidity
    00:00 +20°C° 0 mm 2 mps 605 mmHg 38%
    01:00 +19°C° 0 mm 2 mps 605 mmHg 40%
    02:00 +18°C° 0 mm 2 mps 604 mmHg 43%
    03:00 +18°C° 0 mm 2 mps 604 mmHg 45%
    04:00 +17°C° 0 mm 2 mps 604 mmHg 46%
    05:00 +17°C° 0 mm 2 mps 605 mmHg 48%
    06:00 +17°C° 0 mm 2 mps 605 mmHg 49%
    07:00 +19°C° 0 mm 2 mps 605 mmHg 42%
    08:00 +21°C° 0 mm 2 mps 606 mmHg 36%
    09:00 +24°C° 0 mm 2 mps 607 mmHg 29%
    10:00 +25°C° 0 mm 2 mps 607 mmHg 27%
    11:00 +27°C° 0 mm 2 mps 607 mmHg 24%
    12:00 +28°C° 0 mm 3 mps 608 mmHg 21%
    13:00 +29°C° 0 mm 3 mps 608 mmHg 20%
    14:00 +30°C° 0 mm 3 mps 608 mmHg 19%
    15:00 +30°C° 0 mm 3 mps 608 mmHg 18%
    16:00 +30°C° 0 mm 3 mps 607 mmHg 19%
    17:00 +29°C° 0 mm 3 mps 607 mmHg 20%
    18:00 +28°C° 0 mm 3 mps 607 mmHg 21%
    19:00 +27°C° 0 mm 3 mps 607 mmHg 25%
    20:00 +25°C° 0 mm 2 mps 607 mmHg 28%
    21:00 +23°C° 0 mm 2 mps 607 mmHg 32%
    22:00 +21°C° 0 mm 2 mps 607 mmHg 34%
    23:00 +20°C° 0 mm 2 mps 606 mmHg 35%

    25 August, Friday

    Time Temperature Precipitation Wind Pressure Humidity
    00:00 +20°C° 0 mm 2 mps 606 mmHg 37%
    01:00 +19°C° 0 mm 2 mps 606 mmHg 39%
    02:00 +18°C° 0 mm 2 mps 606 mmHg 40%
    03:00 +18°C° 0 mm 2 mps 606 mmHg 42%
    04:00 +18°C° 0 mm 1 mps 606 mmHg 42%
    05:00 +18°C° 0 mm 1 mps 606 mmHg 43%
    06:00 +18°C° 0 mm 1 mps 606 mmHg 44%
    07:00 +19°C° 0 mm 2 mps 607 mmHg 38%
    08:00 +21°C° 0 mm 2 mps 607 mmHg 32%
    09:00 +24°C° 0 mm 2 mps 608 mmHg 27%
    10:00 +26°C° 0 mm 2 mps 608 mmHg 24%
    11:00 +27°C° 0 mm 2 mps 608 mmHg 22%
    12:00 +28°C° 0 mm 2 mps 608 mmHg 19%
    13:00 +29°C° 0 mm 2 mps 608 mmHg 18%
    14:00 +30°C° 0 mm 3 mps 608 mmHg 17%
    15:00 +30°C° 0 mm 3 mps 608 mmHg 15%
    16:00 +30°C° 0 mm 3 mps 608 mmHg 16%
    17:00 +29°C° 0 mm 3 mps 608 mmHg 17%
    18:00 +28°C° 0 mm 3 mps 607 mmHg 18%
    19:00 +26°C° 0 mm 2 mps 607 mmHg 21%
    20:00 +24°C° 0 mm 2 mps 607 mmHg 24%
    21:00 +23°C° 0 mm 2 mps 607 mmHg 27%
    22:00 +21°C° 0 mm 2 mps 607 mmHg 28%
    23:00 +20°C° 0 mm 2 mps 606 mmHg 30%

    26 August, Saturday

    Time Temperature Precipitation Wind Pressure Humidity
    00:00 +19°C° 0 mm 2 mps 606 mmHg 31%
    01:00 +18°C° 0 mm 2 mps 606 mmHg 32%
    02:00 +18°C° 0 mm 2 mps 606 mmHg 33%
    03:00 +17°C° 0 mm 2 mps 605 mmHg 35%
    04:00 +17°C° 0 mm 2 mps 605 mmHg 35%
    05:00 +16°C° 0 mm 2 mps 605 mmHg 36%
    06:00 +16°C° 0 mm 1 mps 605 mmHg 37%
    07:00 +18°C° 0 mm 2 mps 606 mmHg 32%
    08:00 +20°C° 0 mm 2 mps 606 mmHg 27%
    09:00 +24°C° 0 mm 2 mps 607 mmHg 22%
    10:00 +25°C° 0 mm 2 mps 607 mmHg 20%
    11:00 +26°C° 0 mm 2 mps 607 mmHg 18%
    12:00 +27°C° 0 mm 2 mps 607 mmHg 16%
    13:00 +28°C° 0 mm 3 mps 607 mmHg 16%
    14:00 +29°C° 0 mm 3 mps 607 mmHg 15%
    15:00 +29°C° 0 mm 3 mps 607 mmHg 14%
    16:00 +29°C° 0 mm 3 mps 606 mmHg 15%
    17:00 +28°C° 0 mm 3 mps 606 mmHg 16%
    18:00 +27°C° 0 mm 3 mps 606 mmHg 17%
    19:00 +25°C° 0 mm 3 mps 606 mmHg 20%
    20:00 +24°C° 0 mm 2 mps 605 mmHg 22%
    21:00 +21°C° 0 mm 2 mps 605 mmHg 25%
    22:00 +20°C° 0 mm 2 mps 605 mmHg 26%
    23:00 +19°C° 0 mm 2 mps 605 mmHg 28%
    Show more